Location: Township of Marena
(38.1747°N, 99.6798°W)
Time: 02:39:52
(UTC+00:00)

Cosmos 1833 Rocket - Pass Details

Date: 26 October 2020
Orbit: 832 x 840 km, 71.0° (Epoch: 24 November)

Event Time Altitude Azimuth Distance (km) Brightness Sun altitude
Exits shadow 10:50:49 31° 191° (S) 1,430 3.7 -25.8°
Maximum altitude 10:53:36 77° 111° (ESE) 863 2.7 -25.2°
Drops below altitude 10° 10:59:15 10° 25° (NNE) 2,462 5.4 -24.1°
Sets 11:01:42 0° 24° (NNE) 3,401 6.2 -23.6°
